Date String (YYYY-MM-DD hh:mm:ss) UTC,Instrument flags,absolute air pressure of the measurement (hPa),sample flow rate (lpm),inlet stack bypass flow (lpm),air temperature of the measurement (°C),ambient temperature measured by the external sensor (°C),aerosol sample conditioner tube jacket temperature (°C),OPC LED temperature (°C),internal box temperature (°C),relative humidity of the measurement (%),span deviation,mass concentration of particles derived from Lorenz-Mie calculation of OPC scattering (μg/m³),mass concentration of particles derived from Lorenz-Mie calculation of OPC scattering (μg/m³),mass concentration of particles derived from Lorenz-Mie calculation of OPC scattering (μg/m³)
DateTimeUTC,F1_M11,P_M11,Q1_M11,Q2_M11,T1_M11,T2_M11,T3_M11,T4_M11,T5_M11,U1_M11,ZSPAN_M11,X0_M11,X2_M11,X1_M11
2023-09-11 19:00:00,SystemResetWarning,0837.8,5.00,000.00,028.6,027.4,000.0,037.0,030.2,32.1,-000.8,0012.72,0007.36,0006.98
2023-09-11 19:01:00,SystemResetWarning,0837.8,5.00,000.00,028.7,027.5,000.0,037.0,030.3,32.2,-000.9,0012.95,0007.37,0007.00
2023-09-11 19:02:00,SystemResetWarning,0837.8,5.00,000.00,028.7,027.6,000.0,037.0,030.4,31.8,-001.1,0013.11,0007.41,0007.02
2023-09-11 19:03:00,SystemResetWarning,0837.8,5.00,000.00,028.7,027.7,000.0,037.1,030.5,30.7,-001.2,0013.13,0007.42,0007.03
2023-09-11 19:04:00,SystemResetWarning,0837.8,4.99,000.00,028.8,027.7,000.0,037.1,030.5,31.0,-001.4,0013.07,0007.43,0007.05
2023-09-11 19:05:00,SystemResetWarning,0837.8,4.99,000.00,028.8,027.8,000.0,037.1,030.5,30.9,-001.5,0013.02,0007.45,0007.05
2023-09-11 19:06:00,SystemResetWarning,0837.8,5.00,000.00,028.9,027.8,000.0,037.1,030.6,31.0,-001.1,0012.65,0007.45,0007.05
2023-09-11 19:07:00,SystemResetWarning,0837.8,5.01,000.00,028.9,027.9,000.0,037.1,030.6,30.4,-001.2,0011.95,0007.44,0007.05
2023-09-11 19:08:00,SystemResetWarning,0837.8,5.01,000.00,028.9,027.9,000.0,037.2,030.6,30.0,-001.3,0012.41,0007.46,0007.06
2023-09-11 19:09:00,SystemResetWarning,0837.8,5.00,000.00,029.0,028.0,000.0,037.2,030.7,30.5,-001.5,0012.55,0007.46,0007.08
2023-09-11 19:10:00,SystemResetWarning,0837.8,5.00,000.00,029.0,028.0,000.0,037.2,030.7,30.4,-001.8,0012.54,0007.45,0007.10
2023-09-11 19:11:00,SystemResetWarning,0837.8,4.98,000.00,029.0,026.9,000.0,037.2,030.5,30.5,-001.9,0012.21,0007.45,0007.11
2023-09-11 19:12:00,SystemResetWarning,0837.7,5.00,000.00,028.9,025.1,000.0,037.1,030.0,31.5,-001.8,0012.05,0007.42,0007.10
2023-09-11 19:13:00,SystemResetWarning,0837.7,5.00,000.00,028.8,024.3,000.0,037.0,029.9,31.4,-001.6,0011.83,0007.40,0007.10
2023-09-11 19:14:00,SystemResetWarning,0837.7,5.01,000.00,028.6,024.3,000.0,037.0,029.7,32.2,-001.5,0011.86,0007.41,0007.10
2023-09-11 19:15:00,SystemResetWarning,0837.7,5.01,000.00,028.5,024.7,000.0,037.0,029.6,32.0,-001.2,0011.87,0007.43,0007.10
2023-09-11 19:16:00,SystemResetWarning,0837.7,4.99,000.00,028.5,025.1,000.0,037.0,029.7,31.3,-001.3,0011.66,0007.40,0007.09
2023-09-11 19:17:00,SystemResetWarning,0837.7,5.01,000.00,028.4,025.6,000.0,037.0,029.7,30.8,-001.5,0011.65,0007.39,0007.07
2023-09-11 19:18:00,SystemResetWarning,0837.7,5.00,000.00,028.4,025.9,000.0,036.9,029.8,30.9,-001.6,0011.74,0007.40,0007.06
2023-09-11 19:19:00,SystemResetWarning,0837.7,5.00,000.00,028.4,026.3,000.0,036.9,029.9,30.8,-001.6,0011.16,0007.38,0007.04
2023-09-11 19:20:00,SystemResetWarning,0837.7,5.01,000.00,028.4,026.5,000.0,036.9,029.9,30.8,-001.7,0010.96,0007.38,0007.02
2023-09-11 19:21:00,SystemResetWarning,0837.7,5.00,000.00,028.5,026.8,000.0,036.9,030.0,31.0,-001.6,0011.07,0007.40,0007.01
2023-09-11 19:22:00,SystemResetWarning,0837.7,4.99,000.00,028.5,027.0,000.0,036.9,030.0,31.3,-001.6,0011.12,0007.40,0006.99
2023-09-11 19:23:00,SystemResetWarning,0837.7,4.99,000.00,028.5,027.1,000.0,036.9,030.1,31.9,-001.7,0011.05,0007.38,0006.98
2023-09-11 19:24:00,SystemResetWarning,0837.7,4.99,000.00,028.5,027.3,000.0,037.0,030.1,32.7,-001.6,0011.04,0007.38,0006.98
2023-09-11 19:25:00,SystemResetWarning,0837.7,5.00,000.00,028.6,027.4,000.0,037.0,030.2,31.9,-001.6,0011.24,0007.38,0006.98
2023-09-11 19:26:00,SystemResetWarning,0837.7,5.01,000.00,028.6,027.5,000.0,037.0,030.2,30.3,-001.6,0011.31,0007.36,0006.96
2023-09-11 19:27:00,SystemResetWarning,0837.7,5.01,000.00,028.6,027.6,000.0,037.0,030.3,30.1,-001.5,0011.35,0007.35,0006.95
2023-09-11 19:28:00,SystemResetWarning,0837.7,5.00,000.00,028.7,027.7,000.0,037.0,030.3,30.3,-001.6,0011.34,0007.34,0006.97
2023-09-11 19:29:00,SystemResetWarning,0837.7,5.00,000.00,028.7,027.8,000.0,037.0,030.4,30.9,-001.5,0011.94,0007.37,0006.99
2023-09-11 19:30:00,SystemResetWarning,0837.6,5.00,000.00,028.8,027.8,000.0,037.1,030.5,31.1,-001.7,0012.03,0007.41,0007.03
2023-09-11 19:31:00,SystemResetWarning,0837.6,5.00,000.00,028.8,027.9,000.0,037.1,030.5,31.2,-001.8,0011.92,0007.40,0007.05
2023-09-11 19:32:00,SystemResetWarning,0837.6,4.99,000.00,028.8,028.0,000.0,037.1,030.5,31.6,-001.8,0011.85,0007.41,0007.05
2023-09-11 19:33:00,SystemResetWarning,0837.6,4.99,000.00,028.9,027.9,000.0,037.1,030.6,31.2,-001.6,0011.90,0007.45,0007.09
2023-09-11 19:34:00,SystemResetWarning,0837.6,5.00,000.00,028.9,026.8,000.0,037.1,030.4,32.4,-001.5,0011.99,0007.50,0007.13
2023-09-11 19:35:00,SystemResetWarning,0837.6,5.00,000.00,028.8,025.1,000.0,037.0,030.1,33.1,-001.5,0012.07,0007.54,0007.14
2023-09-11 19:36:00,SystemResetWarning,0837.7,5.01,000.00,028.7,024.5,000.0,036.9,029.9,32.6,-001.5,0011.90,0007.55,0007.14
2023-09-11 19:37:00,SystemResetWarning,0837.6,5.01,000.00,028.6,024.6,000.0,036.9,029.8,32.3,-001.6,0011.82,0007.56,0007.17
2023-09-11 19:38:00,SystemResetWarning,0837.6,5.01,000.00,028.5,025.0,000.0,036.9,029.7,32.8,-001.6,0011.75,0007.55,0007.17
2023-09-11 19:39:00,SystemResetWarning,0837.7,5.00,000.00,028.5,025.4,000.0,036.9,029.8,32.9,-001.3,0011.74,0007.57,0007.17
2023-09-11 19:40:00,SystemResetWarning,0837.6,5.00,000.00,028.4,025.8,000.0,036.9,029.8,32.0,-001.1,0011.21,0007.56,0007.18
2023-09-11 19:41:00,SystemResetWarning,0837.6,5.01,000.00,028.4,026.2,000.0,036.9,029.9,32.4,-000.8,0011.03,0007.54,0007.16
2023-09-11 19:42:00,SystemResetWarning,0837.6,4.99,000.00,028.5,026.5,000.0,036.9,030.0,31.7,-000.8,0011.03,0007.54,0007.17
2023-09-11 19:43:00,SystemResetWarning,0837.6,4.99,000.00,028.5,026.7,000.0,036.9,030.0,31.1,-000.7,0011.01,0007.52,0007.17
2023-09-11 19:44:00,SystemResetWarning,0837.6,5.00,000.00,028.5,027.0,000.0,036.9,030.1,31.0,-000.7,0011.02,0007.51,0007.17
2023-09-11 19:45:00,SystemResetWarning,0837.6,5.00,000.00,028.5,027.1,000.0,036.9,030.1,31.4,-000.6,0011.07,0007.51,0007.17
2023-09-11 19:46:00,SystemResetWarning,0837.7,5.00,000.00,028.6,027.3,000.0,036.9,030.2,31.3,-000.6,0011.08,0007.51,0007.18
2023-09-11 19:47:00,SystemResetWarning,0837.7,5.00,000.00,028.6,027.4,000.0,036.9,030.2,32.1,-000.4,0011.10,0007.54,0007.22
2023-09-11 19:48:00,SystemResetWarning,0837.7,5.00,000.00,028.6,027.6,000.0,037.0,030.3,31.7,-000.5,0011.20,0007.59,0007.25
2023-09-11 19:49:00,SystemResetWarning,0837.6,5.00,000.00,028.7,027.7,000.0,037.0,030.4,31.5,-000.6,0011.31,0007.63,0007.29
2023-09-11 19:50:00,SystemResetWarning,0837.6,5.00,000.00,028.7,027.7,000.0,037.0,030.4,30.8,-000.6,0011.65,0007.63,0007.30
2023-09-11 19:51:00,SystemResetWarning,0837.6,4.99,000.00,028.8,027.8,000.0,037.0,030.5,30.8,-000.7,0011.65,0007.64,0007.30
2023-09-11 19:52:00,SystemResetWarning,0837.6,5.00,000.00,028.8,027.9,000.0,037.0,030.5,30.6,-000.8,0011.65,0007.64,0007.29
2023-09-11 19:53:00,SystemResetWarning,0837.6,4.99,000.00,028.8,027.0,000.0,037.0,030.4,31.0,-000.6,0011.69,0007.65,0007.28
2023-09-11 19:54:00,SystemResetWarning,0837.5,5.01,000.00,028.7,025.3,000.0,036.9,030.0,31.5,-000.4,0011.78,0007.65,0007.26
2023-09-11 19:55:00,SystemResetWarning,0837.5,5.00,000.00,028.6,024.4,000.0,036.9,029.8,31.7,-000.4,0011.70,0007.59,0007.22
2023-09-11 19:56:00,SystemResetWarning,0837.5,5.00,000.00,028.5,024.4,000.0,036.8,029.7,31.3,-000.8,0011.59,0007.52,0007.15
2023-09-11 19:57:00,SystemResetWarning,0837.5,5.02,000.00,028.4,024.8,000.0,036.8,029.6,31.9,-001.0,0011.49,0007.44,0007.07
2023-09-11 19:58:00,SystemResetWarning,0837.5,5.00,000.00,028.4,025.2,000.0,036.8,029.6,31.8,-001.6,0011.41,0007.34,0006.98
2023-09-11 19:59:00,SystemResetWarning,0837.5,5.00,000.00,028.3,025.6,000.0,036.8,029.7,32.4,-001.7,0011.28,0007.24,0006.90
